Flag for Norway Weather past 2 weeks in Halden, Norway

Now
57 °F

Cool.


Feels Like: 57 °F
Forecast: 49 / 61 °F
Wind: 3 mph from Southeast

Location: Stromtangen Fyr

Current Time: Oct 1, 2014 at 4:57:13 PM

Latest Report: Oct 1, 2014 at 4:00 PM


Visibility: N/A

Pressure: 30.28 "Hg

Humidity: 71%

Dew point: 48 °F

Location of HaldenLocation

Historic Weather in Halden — Graph

°F

Halden temperature yesterday

Maximum temperature yesterday: 58 °F (at 4:00 PM)
Minimum temperature yesterday: 46 °F (at 6:00 AM)
Average temperature yesterday: 52 °F

Past Weeks' High & Low Weather Summary

 TemperatureHumidityPressure
High64 °F (Sep 16, 4:00 PM)90% (Sep 20, 7:00 AM)30.36 "Hg (Sep 20, 7:00 AM)
Low44 °F (Sep 23, 4:00 AM)37% (Sep 22, 3:00 PM)29.54 "Hg (Sep 25, 2:00 AM)
Average55 °F72%29.99 "Hg
* Reported Sep 16 3:00 PM — Oct 1 3:00 PM, Halden, Weather by CustomWeather, © 2014

Note: Actual official high and low records may vary slightly from our data, if they occured in-between our weather recording intervals... More about our weather records

Advertising

Halden weather history for previous 24 hours

 ConditionsComfort  
Time TempWeatherWind HumidityBarometerVisibility
3:00 PM
Oct 1
58 °FCool.6 mph69%30.30 "HgN/A
2:00 PM58 °FCool.7 mph68%30.31 "HgN/A
1:00 PM58 °FCool.5 mph66%30.32 "HgN/A
12:00 PM56 °FCool.2 mph63%30.32 "HgN/A
11:00 AM53 °FCool.5 mph63%30.33 "HgN/A
10:00 AM51 °FCool.3 mph64%30.34 "HgN/A
9:00 AM49 °FCool.5 mph74%30.34 "HgN/A
8:00 AM47 °FCool.6 mph81%30.33 "HgN/A
7:00 AM49 °FCool.5 mph76%30.34 "HgN/A
6:00 AM49 °FCool.5 mph79%30.34 "HgN/A
5:00 AM49 °FCool.5 mph78%30.35 "HgN/A
4:00 AM50 °FCool.5 mph76%30.35 "HgN/A
3:00 AM51 °FCool.5 mph75%30.35 "HgN/A
2:00 AM51 °FCool.6 mph77%30.35 "HgN/A
1:00 AM53 °FCool.6 mph76%30.35 "HgN/A
12:00 AM53 °FCool.6 mph71%30.36 "HgN/A
11:00 PM
Sep 30
53 °FCool.5 mph72%30.35 "HgN/A
10:00 PM53 °FCool.5 mph72%30.35 "HgN/A
9:00 PM53 °FCool.2 mph76%30.34 "HgN/A
8:00 PM53 °FCool.2 mph70%30.34 "HgN/A
7:00 PM56 °FCool.1 mph62%30.33 "HgN/A
6:00 PM58 °FCool.2 mph60%30.33 "HgN/A
5:00 PM58 °FCool.2 mph63%30.33 "HgN/A
4:00 PM58 °FCool.3 mph61%30.33 "HgN/A
Weather by CustomWeather, © 2014

See weather overviewHow to use our weather pages